owner,sensor,date,latitude,longitude,vertical_datum,mass_concentration_of_oxygen_in_sea_water,qcFlag 
DISL,ioos:station:DISL:BSCA:1,2017-01-01T06:30:00Z,30.3288,-87.8293,2.328,8.31,1111122 
DISL,ioos:station:DISL:BSCA:1,2017-01-01T07:00:00Z,30.3288,-87.8293,2.386,8.31,1111122 
DISL,ioos:station:DISL:BSCA:1,2017-01-01T07:30:00Z,30.3288,-87.8293,2.368,8.2,1111122 
DISL,ioos:station:DISL:BSCA:1,2017-01-01T08:00:00Z,30.3288,-87.8293,2.408,8.18,1111122 
DISL,ioos:station:DISL:BSCA:1,2017-01-01T08:30:00Z,30.3288,-87.8293,2.329,8.19,1111122 
DISL,ioos:station:DISL:BSCA:1,2017-01-01T09:00:00Z,30.3288,-87.8293,2.328,8.18,1111122 
DISL,ioos:station:DISL:BSCA:1,2017-01-01T09:30:00Z,30.3288,-87.8293,2.353,8.13,1111122 
DISL,ioos:station:DISL:BSCA:1,2017-01-01T10:00:00Z,30.3288,-87.8293,2.265,8.11,1111122 
DISL,ioos:station:DISL:BSCA:1,2017-01-01T10:30:00Z,30.3288,-87.8293,2.298,8.07,1111122 
DISL,ioos:station:DISL:BSCA:1,2017-01-01T11:00:00Z,30.3288,-87.8293,2.25,7.88,1111122 
DISL,ioos:station:DISL:BSCA:1,2017-01-01T11:30:00Z,30.3288,-87.8293,2.237,7.84,1111122 
DISL,ioos:station:DISL:BSCA:1,2017-01-01T12:00:00Z,30.3288,-87.8293,2.2,7.76,1111122 
DISL,ioos:station:DISL:BSCA:1,2017-01-01T12:30:00Z,30.3288,-87.8293,2.085,7.89,1111122 
DISL,ioos:station:DISL:BSCA:1,2017-01-01T13:00:00Z,30.3288,-87.8293,2.051,7.68,1111122 
DISL,ioos:station:DISL:BSCA:1,2017-01-01T13:30:00Z,30.3288,-87.8293,1.995,7.57,1111122 
DISL,ioos:station:DISL:BSCA:1,2017-01-01T14:00:00Z,30.3288,-87.8293,1.992,7.5,1111122 
DISL,ioos:station:DISL:BSCA:1,2017-01-01T14:30:00Z,30.3288,-87.8293,1.986,7.47,1111122 
DISL,ioos:station:DISL:BSCA:1,2017-01-01T15:00:00Z,30.3288,-87.8293,1.976,7.17,1111122 
DISL,ioos:station:DISL:BSCA:1,2017-01-01T15:30:00Z,30.3288,-87.8293,1.976,7.1,1111122 
DISL,ioos:station:DISL:BSCA:1,2017-01-01T16:00:00Z,30.3288,-87.8293,1.958,7.3,1111122 
DISL,ioos:station:DISL:BSCA:1,2017-01-01T16:30:00Z,30.3288,-87.8293,1.946,7.51,1111122 
DISL,ioos:station:DISL:BSCA:1,2017-01-01T17:00:00Z,30.3288,-87.8293,1.956,7.67,1111122 
DISL,ioos:station:DISL:BSCA:1,2017-01-01T17:30:00Z,30.3288,-87.8293,1.968,8.49,1111122 
DISL,ioos:station:DISL:BSCA:1,2017-01-01T18:00:00Z,30.3288,-87.8293,1.953,8.35,1111122 
DISL,ioos:station:DISL:BSCA:1,2017-01-01T18:30:00Z,30.3288,-87.8293,1.995,8.51,1111122 
DISL,ioos:station:DISL:BSCA:1,2017-01-01T19:00:00Z,30.3288,-87.8293,2.02,8.53,1111122 
DISL,ioos:station:DISL:BSCA:1,2017-01-01T19:30:00Z,30.3288,-87.8293,2.048,7.83,1111122 
DISL,ioos:station:DISL:BSCA:1,2017-01-01T20:00:00Z,30.3288,-87.8293,2.093,8.22,1111122 
DISL,ioos:station:DISL:BSCA:1,2017-01-01T20:30:00Z,30.3288,-87.8293,2.126,8.54,1111122 
DISL,ioos:station:DISL:BSCA:1,2017-01-01T21:00:00Z,30.3288,-87.8293,2.149,8.8,1111122 
DISL,ioos:station:DISL:BSCA:1,2017-01-01T21:30:00Z,30.3288,-87.8293,2.163,8.77,1111122 
DISL,ioos:station:DISL:BSCA:1,2017-01-01T22:00:00Z,30.3288,-87.8293,2.197,8.86,1111122 
DISL,ioos:station:DISL:BSCA:1,2017-01-01T22:30:00Z,30.3288,-87.8293,2.224,8.81,1111122 
DISL,ioos:station:DISL:BSCA:1,2017-01-01T23:00:00Z,30.3288,-87.8293,2.25,8.8,1111122 
DISL,ioos:station:DISL:BSCA:1,2017-01-01T23:30:00Z,30.3288,-87.8293,2.265,8.71,1111122 
DISL,ioos:station:DISL:BSCA:1,2017-01-02T00:00:00Z,30.3288,-87.8293,2.291,8.59,1111122 
DISL,ioos:station:DISL:BSCA:1,2017-01-02T00:30:00Z,30.3288,-87.8293,2.318,8.47,1111122 
DISL,ioos:station:DISL:BSCA:1,2017-01-02T01:00:00Z,30.3288,-87.8293,2.314,8.6,1111122 
DISL,ioos:station:DISL:BSCA:1,2017-01-02T01:30:00Z,30.3288,-87.8293,2.342,8.57,1111122 
DISL,ioos:station:DISL:BSCA:1,2017-01-02T02:00:00Z,30.3288,-87.8293,2.364,8.57,1111122 
DISL,ioos:station:DISL:BSCA:1,2017-01-02T02:30:00Z,30.3288,-87.8293,2.396,8.6,1111122 
DISL,ioos:station:DISL:BSCA:1,2017-01-02T03:00:00Z,30.3288,-87.8293,2.427,8.58,1111122 
DISL,ioos:station:DISL:BSCA:1,2017-01-02T03:30:00Z,30.3288,-87.8293,2.49,8.53,1111122 
DISL,ioos:station:DISL:BSCA:1,2017-01-02T04:00:00Z,30.3288,-87.8293,2.518,8.27,1111122 
DISL,ioos:station:DISL:BSCA:1,2017-01-02T04:30:00Z,30.3288,-87.8293,2.53,8.31,1111122 
DISL,ioos:station:DISL:BSCA:1,2017-01-02T05:00:00Z,30.3288,-87.8293,2.507,8.22,1111122 
DISL,ioos:station:DISL:BSCA:1,2017-01-02T05:30:00Z,30.3288,-87.8293,2.475,8.17,1111122 
DISL,ioos:station:DISL:BSCA:1,2017-01-02T06:00:00Z,30.3288,-87.8293,2.443,8.15,1111122 
DISL,ioos:station:DISL:BSCA:1,2017-01-02T06:30:00Z,30.3288,-87.8293,2.396,8.19,1111122 
DISL,ioos:station:DISL:BSCA:1,2017-01-02T07:00:00Z,30.3288,-87.8293,2.359,8.01,1111122 
DISL,ioos:station:DISL:BSCA:1,2017-01-02T07:30:00Z,30.3288,-87.8293,2.336,8.04,1111122 
DISL,ioos:station:DISL:BSCA:1,2017-01-02T08:00:00Z,30.3288,-87.8293,2.302,7.81,1111122 
DISL,ioos:station:DISL:BSCA:1,2017-01-02T08:30:00Z,30.3288,-87.8293,2.302,7.65,1111122 
DISL,ioos:station:DISL:BSCA:1,2017-01-02T09:00:00Z,30.3288,-87.8293,2.284,7.34,1111122 
DISL,ioos:station:DISL:BSCA:1,2017-01-02T09:30:00Z,30.3288,-87.8293,2.261,7.45,1111122 
DISL,ioos:station:DISL:BSCA:1,2017-01-02T10:00:00Z,30.3288,-87.8293,2.234,6.92,1111122 
DISL,ioos:station:DISL:BSCA:1,2017-01-02T10:30:00Z,30.3288,-87.8293,2.198,7.86,1111122 
DISL,ioos:station:DISL:BSCA:1,2017-01-02T11:00:00Z,30.3288,-87.8293,2.162,7.57,1111122 
DISL,ioos:station:DISL:BSCA:1,2017-01-02T11:30:00Z,30.3288,-87.8293,2.127,7.17,1111122 
DISL,ioos:station:DISL:BSCA:1,2017-01-02T12:00:00Z,30.3288,-87.8293,2.089,7.2,1111122 
DISL,ioos:station:DISL:BSCA:1,2017-01-02T12:30:00Z,30.3288,-87.8293,2.048,6.95,1111122 
DISL,ioos:station:DISL:BSCA:1,2017-01-02T13:00:00Z,30.3288,-87.8293,2.034,7.13,1111122 
DISL,ioos:station:DISL:BSCA:1,2017-01-02T13:30:00Z,30.3288,-87.8293,2.022,7.31,1111122 
DISL,ioos:station:DISL:BSCA:1,2017-01-02T14:00:00Z,30.3288,-87.8293,2.001,7.93,1111122 
DISL,ioos:station:DISL:BSCA:1,2017-01-02T14:30:00Z,30.3288,-87.8293,1.972,8.09,1111122 
DISL,ioos:station:DISL:BSCA:1,2017-01-02T15:00:00Z,30.3288,-87.8293,1.949,8.16,1111122 
DISL,ioos:station:DISL:BSCA:1,2017-01-02T15:30:00Z,30.3288,-87.8293,1.91,8.14,1111122 
DISL,ioos:station:DISL:BSCA:1,2017-01-02T16:00:00Z,30.3288,-87.8293,1.91,8.23,1111122 
DISL,ioos:station:DISL:BSCA:1,2017-01-02T16:30:00Z,30.3288,-87.8293,1.885,8.23,1111122 
DISL,ioos:station:DISL:BSCA:1,2017-01-02T17:00:00Z,30.3288,-87.8293,1.881,8.23,1111122 
DISL,ioos:station:DISL:BSCA:1,2017-01-02T17:30:00Z,30.3288,-87.8293,1.878,8.17,1111122 
DISL,ioos:station:DISL:BSCA:1,2017-01-02T18:00:00Z,30.3288,-87.8293,1.903,8.26,1111122 
DISL,ioos:station:DISL:BSCA:1,2017-01-02T18:30:00Z,30.3288,-87.8293,1.925,8.3,1111122 
DISL,ioos:station:DISL:BSCA:1,2017-01-02T19:00:00Z,30.3288,-87.8293,1.907,8.24,1111122 
DISL,ioos:station:DISL:BSCA:1,2017-01-02T19:30:00Z,30.3288,-87.8293,1.981,8.22,1111122 
DISL,ioos:station:DISL:BSCA:1,2017-01-02T20:00:00Z,30.3288,-87.8293,2.024,8.26,1111122 
DISL,ioos:station:DISL:BSCA:1,2017-01-02T20:30:00Z,30.3288,-87.8293,2.059,8.27,1111122 
DISL,ioos:station:DISL:BSCA:1,2017-01-02T21:00:00Z,30.3288,-87.8293,2.094,8.29,1111122 
DISL,ioos:station:DISL:BSCA:1,2017-01-02T21:30:00Z,30.3288,-87.8293,2.128,8.18,1111122 
DISL,ioos:station:DISL:BSCA:1,2017-01-02T22:00:00Z,30.3288,-87.8293,2.112,7.98,1111122 
DISL,ioos:station:DISL:BSCA:1,2017-01-02T22:30:00Z,30.3288,-87.8293,2.191,7.86,1111122 
DISL,ioos:station:DISL:BSCA:1,2017-01-02T23:00:00Z,30.3288,-87.8293,2.218,7.89,1111122 
DISL,ioos:station:DISL:BSCA:1,2017-01-02T23:30:00Z,30.3288,-87.8293,2.258,7.95,1111122 
DISL,ioos:station:DISL:BSCA:1,2017-01-03T00:00:00Z,30.3288,-87.8293,2.406,8.16,1111122 
DISL,ioos:station:DISL:BSCA:1,2017-01-03T00:30:00Z,30.3288,-87.8293,2.395,8.04,1111122 
DISL,ioos:station:DISL:BSCA:1,2017-01-03T01:00:00Z,30.3288,-87.8293,2.454,8.14,1111122 
DISL,ioos:station:DISL:BSCA:1,2017-01-03T01:30:00Z,30.3288,-87.8293,2.293,7.93,1111122 
DISL,ioos:station:DISL:BSCA:1,2017-01-03T02:00:00Z,30.3288,-87.8293,2.268,7.75,1111122 
DISL,ioos:station:DISL:BSCA:1,2017-01-03T02:30:00Z,30.3288,-87.8293,2.255,8.08,1111122 
DISL,ioos:station:DISL:BSCA:1,2017-01-03T03:00:00Z,30.3288,-87.8293,2.172,7.77,1111122 
DISL,ioos:station:DISL:BSCA:1,2017-01-03T03:30:00Z,30.3288,-87.8293,2.184,7.63,1111122 
DISL,ioos:station:DISL:BSCA:1,2017-01-03T04:00:00Z,30.3288,-87.8293,2.216,7.5,1111122 
DISL,ioos:station:DISL:BSCA:1,2017-01-03T04:30:00Z,30.3288,-87.8293,2.267,7.93,1111122 
DISL,ioos:station:DISL:BSCA:1,2017-01-03T05:00:00Z,30.3288,-87.8293,2.373,7.9,1111122 
DISL,ioos:station:DISL:BSCA:1,2017-01-03T05:30:00Z,30.3288,-87.8293,2.339,7.86,1111122 
DISL,ioos:station:DISL:BSCA:1,2017-01-03T06:00:00Z,30.3288,-87.8293,2.348,7.93,1111122 
DISL,ioos:station:DISL:BSCA:1,2017-01-03T06:30:00Z,30.3288,-87.8293,2.269,7.9,1111122 
DISL,ioos:station:DISL:BSCA:1,2017-01-03T07:00:00Z,30.3288,-87.8293,2.372,8.0,1111122 
DISL,ioos:station:DISL:BSCA:1,2017-01-03T07:30:00Z,30.3288,-87.8293,2.409,7.91,1111122 
DISL,ioos:station:DISL:BSCA:1,2017-01-03T08:00:00Z,30.3288,-87.8293,2.389,7.8,1111122 
DISL,ioos:station:DISL:BSCA:1,2017-01-03T08:30:00Z,30.3288,-87.8293,2.346,7.81,1111122 
DISL,ioos:station:DISL:BSCA:1,2017-01-03T09:00:00Z,30.3288,-87.8293,2.312,7.87,1111122 
DISL,ioos:station:DISL:BSCA:1,2017-01-03T09:30:00Z,30.3288,-87.8293,2.29,7.72,1111122 
DISL,ioos:station:DISL:BSCA:1,2017-01-03T10:00:00Z,30.3288,-87.8293,2.259,7.68,1111122 
DISL,ioos:station:DISL:BSCA:1,2017-01-03T10:30:00Z,30.3288,-87.8293,2.245,7.77,1111122 
DISL,ioos:station:DISL:BSCA:1,2017-01-03T11:00:00Z,30.3288,-87.8293,2.197,7.63,1111122 
DISL,ioos:station:DISL:BSCA:1,2017-01-03T11:30:00Z,30.3288,-87.8293,2.16,7.65,1111122 
DISL,ioos:station:DISL:BSCA:1,2017-01-03T12:00:00Z,30.3288,-87.8293,2.121,7.6,1111122 
DISL,ioos:station:DISL:BSCA:1,2017-01-03T12:30:00Z,30.3288,-87.8293,2.092,7.74,1111122 
DISL,ioos:station:DISL:BSCA:1,2017-01-03T13:00:00Z,30.3288,-87.8293,2.058,7.59,1111122 
DISL,ioos:station:DISL:BSCA:1,2017-01-03T13:30:00Z,30.3288,-87.8293,2.036,7.59,1111122 
DISL,ioos:station:DISL:BSCA:1,2017-01-03T14:00:00Z,30.3288,-87.8293,2.006,7.66,1111122 
DISL,ioos:station:DISL:BSCA:1,2017-01-03T14:30:00Z,30.3288,-87.8293,1.982,7.28,1111122 
DISL,ioos:station:DISL:BSCA:1,2017-01-03T15:00:00Z,30.3288,-87.8293,1.964,7.37,1111122 
DISL,ioos:station:DISL:BSCA:1,2017-01-03T15:30:00Z,30.3288,-87.8293,1.963,6.79,1111122 
DISL,ioos:station:DISL:BSCA:1,2017-01-03T16:00:00Z,30.3288,-87.8293,1.946,7.03,1111122 
DISL,ioos:station:DISL:BSCA:1,2017-01-03T16:30:00Z,30.3288,-87.8293,1.952,7.0,1111122 
DISL,ioos:station:DISL:BSCA:1,2017-01-03T17:00:00Z,30.3288,-87.8293,1.951,7.26,1111122 
DISL,ioos:station:DISL:BSCA:1,2017-01-03T17:30:00Z,30.3288,-87.8293,1.948,7.36,1111122 
DISL,ioos:station:DISL:BSCA:1,2017-01-03T18:00:00Z,30.3288,-87.8293,1.948,7.21,1111122 
DISL,ioos:station:DISL:BSCA:1,2017-01-03T18:30:00Z,30.3288,-87.8293,1.974,6.85,1111122 
DISL,ioos:station:DISL:BSCA:1,2017-01-03T19:00:00Z,30.3288,-87.8293,1.994,7.18,1111122 
DISL,ioos:station:DISL:BSCA:1,2017-01-03T19:30:00Z,30.3288,-87.8293,2.02,7.14,1111122 
DISL,ioos:station:DISL:BSCA:1,2017-01-03T20:00:00Z,30.3288,-87.8293,2.044,7.47,1111122 
DISL,ioos:station:DISL:BSCA:1,2017-01-03T20:30:00Z,30.3288,-87.8293,2.069,7.72,1111122 
DISL,ioos:station:DISL:BSCA:1,2017-01-03T21:00:00Z,30.3288,-87.8293,2.106,7.82,1111122 
DISL,ioos:station:DISL:BSCA:1,2017-01-03T21:30:00Z,30.3288,-87.8293,2.135,7.44,1111122 
DISL,ioos:station:DISL:BSCA:1,2017-01-03T22:00:00Z,30.3288,-87.8293,2.155,7.1,1111122 
DISL,ioos:station:DISL:BSCA:1,2017-01-03T22:30:00Z,30.3288,-87.8293,2.175,7.19,1111122 
DISL,ioos:station:DISL:BSCA:1,2017-01-03T23:00:00Z,30.3288,-87.8293,2.178,7.01,1111122 
DISL,ioos:station:DISL:BSCA:1,2017-01-03T23:30:00Z,30.3288,-87.8293,2.18,7.16,1111122 
DISL,ioos:station:DISL:BSCA:1,2017-01-04T00:00:00Z,30.3288,-87.8293,2.211,7.52,1111122 
DISL,ioos:station:DISL:BSCA:1,2017-01-04T00:30:00Z,30.3288,-87.8293,2.218,7.8,1111122 
DISL,ioos:station:DISL:BSCA:1,2017-01-04T01:00:00Z,30.3288,-87.8293,2.232,8.06,1111122 
DISL,ioos:station:DISL:BSCA:1,2017-01-04T01:30:00Z,30.3288,-87.8293,2.245,8.09,1111122 
DISL,ioos:station:DISL:BSCA:1,2017-01-04T02:00:00Z,30.3288,-87.8293,2.244,8.18,1111122 
DISL,ioos:station:DISL:BSCA:1,2017-01-04T02:30:00Z,30.3288,-87.8293,2.254,8.28,1111122 
DISL,ioos:station:DISL:BSCA:1,2017-01-04T03:00:00Z,30.3288,-87.8293,2.252,8.27,1111122 
DISL,ioos:station:DISL:BSCA:1,2017-01-04T03:30:00Z,30.3288,-87.8293,2.26,8.08,1111122 
DISL,ioos:station:DISL:BSCA:1,2017-01-04T04:00:00Z,30.3288,-87.8293,2.275,7.95,1111122 
DISL,ioos:station:DISL:BSCA:1,2017-01-04T04:30:00Z,30.3288,-87.8293,2.278,8.08,1111122 
DISL,ioos:station:DISL:BSCA:1,2017-01-04T05:00:00Z,30.3288,-87.8293,2.273,7.79,1111122 
DISL,ioos:station:DISL:BSCA:1,2017-01-04T05:30:00Z,30.3288,-87.8293,2.266,7.86,1111122 
DISL,ioos:station:DISL:BSCA:1,2017-01-04T06:00:00Z,30.3288,-87.8293,2.262,7.7,1111122 
DISL,ioos:station:DISL:BSCA:1,2017-01-04T06:30:00Z,30.3288,-87.8293,2.262,7.37,1111122 
DISL,ioos:station:DISL:BSCA:1,2017-01-04T07:00:00Z,30.3288,-87.8293,2.258,7.26,1111122 
DISL,ioos:station:DISL:BSCA:1,2017-01-04T07:30:00Z,30.3288,-87.8293,2.246,7.3,1111122 
DISL,ioos:station:DISL:BSCA:1,2017-01-04T08:00:00Z,30.3288,-87.8293,2.237,7.81,1111122 
DISL,ioos:station:DISL:BSCA:1,2017-01-04T08:30:00Z,30.3288,-87.8293,2.225,7.37,1111122 
DISL,ioos:station:DISL:BSCA:1,2017-01-04T09:00:00Z,30.3288,-87.8293,2.217,7.29,1111122 
DISL,ioos:station:DISL:BSCA:1,2017-01-04T09:30:00Z,30.3288,-87.8293,2.207,7.31,1111122 
DISL,ioos:station:DISL:BSCA:1,2017-01-04T10:00:00Z,30.3288,-87.8293,2.197,6.84,1111122 
DISL,ioos:station:DISL:BSCA:1,2017-01-04T10:30:00Z,30.3288,-87.8293,2.186,7.35,1111122 
DISL,ioos:station:DISL:BSCA:1,2017-01-04T11:00:00Z,30.3288,-87.8293,2.178,7.69,1111122 
DISL,ioos:station:DISL:BSCA:1,2017-01-04T11:30:00Z,30.3288,-87.8293,2.162,7.61,1111122 
DISL,ioos:station:DISL:BSCA:1,2017-01-04T12:00:00Z,30.3288,-87.8293,2.153,6.7,1111122 
DISL,ioos:station:DISL:BSCA:1,2017-01-04T12:30:00Z,30.3288,-87.8293,2.114,6.55,1111122 
DISL,ioos:station:DISL:BSCA:1,2017-01-04T13:00:00Z,30.3288,-87.8293,2.095,7.64,1111122 
DISL,ioos:station:DISL:BSCA:1,2017-01-04T13:30:00Z,30.3288,-87.8293,2.016,7.91,1111122 
DISL,ioos:station:DISL:BSCA:1,2017-01-04T14:00:00Z,30.3288,-87.8293,1.954,7.97,1111122 
DISL,ioos:station:DISL:BSCA:1,2017-01-04T14:30:00Z,30.3288,-87.8293,1.904,8.09,1111122 
DISL,ioos:station:DISL:BSCA:1,2017-01-04T15:00:00Z,30.3288,-87.8293,1.882,8.15,1111122 
DISL,ioos:station:DISL:BSCA:1,2017-01-04T15:30:00Z,30.3288,-87.8293,1.85,7.98,1111122 
DISL,ioos:station:DISL:BSCA:1,2017-01-04T16:00:00Z,30.3288,-87.8293,1.86,7.73,1111122 
DISL,ioos:station:DISL:BSCA:1,2017-01-04T16:30:00Z,30.3288,-87.8293,1.868,7.62,1111122 
DISL,ioos:station:DISL:BSCA:1,2017-01-04T17:00:00Z,30.3288,-87.8293,1.9,7.22,1111122 
DISL,ioos:station:DISL:BSCA:1,2017-01-04T17:30:00Z,30.3288,-87.8293,1.91,7.01,1111122 
DISL,ioos:station:DISL:BSCA:1,2017-01-04T18:00:00Z,30.3288,-87.8293,1.922,7.1,1111122 
DISL,ioos:station:DISL:BSCA:1,2017-01-04T18:30:00Z,30.3288,-87.8293,1.903,7.19,1111122 
DISL,ioos:station:DISL:BSCA:1,2017-01-04T19:00:00Z,30.3288,-87.8293,1.923,7.27,1111122 
DISL,ioos:station:DISL:BSCA:1,2017-01-04T19:30:00Z,30.3288,-87.8293,1.901,7.03,1111122 
DISL,ioos:station:DISL:BSCA:1,2017-01-04T20:00:00Z,30.3288,-87.8293,1.918,6.88,1111122 
DISL,ioos:station:DISL:BSCA:1,2017-01-04T20:30:00Z,30.3288,-87.8293,1.93,6.82,1111122 
DISL,ioos:station:DISL:BSCA:1,2017-01-04T21:00:00Z,30.3288,-87.8293,1.958,6.76,1111122 
DISL,ioos:station:DISL:BSCA:1,2017-01-04T21:30:00Z,30.3288,-87.8293,2.005,6.95,1111122 
DISL,ioos:station:DISL:BSCA:1,2017-01-04T22:00:00Z,30.3288,-87.8293,2.03,7.16,1111122 
DISL,ioos:station:DISL:BSCA:1,2017-01-04T22:30:00Z,30.3288,-87.8293,2.016,7.17,1111122 
DISL,ioos:station:DISL:BSCA:1,2017-01-04T23:00:00Z,30.3288,-87.8293,2.039,7.05,1111122 
DISL,ioos:station:DISL:BSCA:1,2017-01-04T23:30:00Z,30.3288,-87.8293,2.031,6.83,1111122 
DISL,ioos:station:DISL:BSCA:1,2017-01-05T00:00:00Z,30.3288,-87.8293,2.011,6.77,1111122 
DISL,ioos:station:DISL:BSCA:1,2017-01-05T00:30:00Z,30.3288,-87.8293,2.007,6.98,1111122 
DISL,ioos:station:DISL:BSCA:1,2017-01-05T01:00:00Z,30.3288,-87.8293,1.992,7.29,1111122 
DISL,ioos:station:DISL:BSCA:1,2017-01-05T01:30:00Z,30.3288,-87.8293,1.993,8.05,1111122 
DISL,ioos:station:DISL:BSCA:1,2017-01-05T02:00:00Z,30.3288,-87.8293,1.971,8.02,1111122 
DISL,ioos:station:DISL:BSCA:1,2017-01-05T02:30:00Z,30.3288,-87.8293,1.956,8.12,1111122 
DISL,ioos:station:DISL:BSCA:1,2017-01-05T03:00:00Z,30.3288,-87.8293,1.949,7.82,1111122 
DISL,ioos:station:DISL:BSCA:1,2017-01-05T03:30:00Z,30.3288,-87.8293,1.934,7.71,1111122 
DISL,ioos:station:DISL:BSCA:1,2017-01-05T04:00:00Z,30.3288,-87.8293,1.929,7.42,1111122 
DISL,ioos:station:DISL:BSCA:1,2017-01-05T04:30:00Z,30.3288,-87.8293,1.919,7.76,1111122 
DISL,ioos:station:DISL:BSCA:1,2017-01-05T05:00:00Z,30.3288,-87.8293,1.929,7.79,1111122 
DISL,ioos:station:DISL:BSCA:1,2017-01-05T05:30:00Z,30.3288,-87.8293,1.928,7.96,1111122 
DISL,ioos:station:DISL:BSCA:1,2017-01-05T06:00:00Z,30.3288,-87.8293,1.955,8.13,1111122 
DISL,ioos:station:DISL:BSCA:1,2017-01-05T06:30:00Z,30.3288,-87.8293,1.939,8.07,1111122 
DISL,ioos:station:DISL:BSCA:1,2017-01-05T07:00:00Z,30.3288,-87.8293,1.966,6.7,1111122 
DISL,ioos:station:DISL:BSCA:1,2017-01-05T07:30:00Z,30.3288,-87.8293,1.978,6.15,1111122 
DISL,ioos:station:DISL:BSCA:1,2017-01-05T08:00:00Z,30.3288,-87.8293,2.0,6.64,1111122 
DISL,ioos:station:DISL:BSCA:1,2017-01-05T08:30:00Z,30.3288,-87.8293,2.02,5.76,1111122 
DISL,ioos:station:DISL:BSCA:1,2017-01-05T09:00:00Z,30.3288,-87.8293,2.038,5.59,1111122 
DISL,ioos:station:DISL:BSCA:1,2017-01-05T09:30:00Z,30.3288,-87.8293,2.041,5.72,1111122 
DISL,ioos:station:DISL:BSCA:1,2017-01-05T10:00:00Z,30.3288,-87.8293,2.044,5.62,1111122 
DISL,ioos:station:DISL:BSCA:1,2017-01-05T10:30:00Z,30.3288,-87.8293,2.047,5.37,1111122 
DISL,ioos:station:DISL:BSCA:1,2017-01-05T11:00:00Z,30.3288,-87.8293,2.034,6.45,1111122 
DISL,ioos:station:DISL:BSCA:1,2017-01-05T11:30:00Z,30.3288,-87.8293,2.034,5.13,1111122 
DISL,ioos:station:DISL:BSCA:1,2017-01-05T12:00:00Z,30.3288,-87.8293,2.015,6.27,1111122 
DISL,ioos:station:DISL:BSCA:1,2017-01-05T12:30:00Z,30.3288,-87.8293,2.001,6.15,1111122 
DISL,ioos:station:DISL:BSCA:1,2017-01-05T13:00:00Z,30.3288,-87.8293,1.975,5.66,1111122 
DISL,ioos:station:DISL:BSCA:1,2017-01-05T13:30:00Z,30.3288,-87.8293,1.952,6.79,1111122 
DISL,ioos:station:DISL:BSCA:1,2017-01-05T14:00:00Z,30.3288,-87.8293,1.932,7.25,1111122 
DISL,ioos:station:DISL:BSCA:1,2017-01-05T14:30:00Z,30.3288,-87.8293,1.916,7.77,1111122 
DISL,ioos:station:DISL:BSCA:1,2017-01-05T15:00:00Z,30.3288,-87.8293,1.897,8.0,1111122 
DISL,ioos:station:DISL:BSCA:1,2017-01-05T15:30:00Z,30.3288,-87.8293,1.89,7.71,1111122 
DISL,ioos:station:DISL:BSCA:1,2017-01-05T16:00:00Z,30.3288,-87.8293,1.892,7.25,1111122 
DISL,ioos:station:DISL:BSCA:1,2017-01-05T16:30:00Z,30.3288,-87.8293,1.893,7.08,1111122 
DISL,ioos:station:DISL:BSCA:1,2017-01-05T17:00:00Z,30.3288,-87.8293,1.892,7.3,1111122 
DISL,ioos:station:DISL:BSCA:1,2017-01-05T17:30:00Z,30.3288,-87.8293,1.881,7.77,1111122 
DISL,ioos:station:DISL:BSCA:1,2017-01-05T18:00:00Z,30.3288,-87.8293,1.902,7.51,1111122 
DISL,ioos:station:DISL:BSCA:1,2017-01-05T18:30:00Z,30.3288,-87.8293,1.928,7.6,1111122 
DISL,ioos:station:DISL:BSCA:1,2017-01-05T19:00:00Z,30.3288,-87.8293,1.924,7.68,1111122 
DISL,ioos:station:DISL:BSCA:1,2017-01-05T19:30:00Z,30.3288,-87.8293,1.936,7.09,1111122 
DISL,ioos:station:DISL:BSCA:1,2017-01-05T20:00:00Z,30.3288,-87.8293,1.96,7.61,1111122 
DISL,ioos:station:DISL:BSCA:1,2017-01-05T20:30:00Z,30.3288,-87.8293,1.979,6.76,1111122 
DISL,ioos:station:DISL:BSCA:1,2017-01-05T21:00:00Z,30.3288,-87.8293,2.002,6.58,1111122 
DISL,ioos:station:DISL:BSCA:1,2017-01-05T21:30:00Z,30.3288,-87.8293,2.034,6.72,1111122 
DISL,ioos:station:DISL:BSCA:1,2017-01-05T22:00:00Z,30.3288,-87.8293,2.048,6.16,1111122 
DISL,ioos:station:DISL:BSCA:1,2017-01-05T22:30:00Z,30.3288,-87.8293,2.068,6.28,1111122 
DISL,ioos:station:DISL:BSCA:1,2017-01-05T23:00:00Z,30.3288,-87.8293,2.069,6.4,1111122 
DISL,ioos:station:DISL:BSCA:1,2017-01-05T23:30:00Z,30.3288,-87.8293,2.086,6.42,1111122 
DISL,ioos:station:DISL:BSCA:1,2017-01-06T00:00:00Z,30.3288,-87.8293,2.083,6.88,1111122 
DISL,ioos:station:DISL:BSCA:1,2017-01-06T00:30:00Z,30.3288,-87.8293,2.104,7.29,1111122 
DISL,ioos:station:DISL:BSCA:1,2017-01-06T01:00:00Z,30.3288,-87.8293,2.105,6.81,1111122 
DISL,ioos:station:DISL:BSCA:1,2017-01-06T01:30:00Z,30.3288,-87.8293,2.103,7.71,1111122 
DISL,ioos:station:DISL:BSCA:1,2017-01-06T02:00:00Z,30.3288,-87.8293,2.078,7.81,1111122 
DISL,ioos:station:DISL:BSCA:1,2017-01-06T02:30:00Z,30.3288,-87.8293,2.112,7.26,1111122 
DISL,ioos:station:DISL:BSCA:1,2017-01-06T03:00:00Z,30.3288,-87.8293,2.102,7.38,1111122 
DISL,ioos:station:DISL:BSCA:1,2017-01-06T03:30:00Z,30.3288,-87.8293,2.076,7.29,1111122 
DISL,ioos:station:DISL:BSCA:1,2017-01-06T04:00:00Z,30.3288,-87.8293,2.086,7.09,1111122 
DISL,ioos:station:DISL:BSCA:1,2017-01-06T04:30:00Z,30.3288,-87.8293,2.073,7.12,1111122 
DISL,ioos:station:DISL:BSCA:1,2017-01-06T05:00:00Z,30.3288,-87.8293,2.076,7.29,1111122 
DISL,ioos:station:DISL:BSCA:1,2017-01-06T05:30:00Z,30.3288,-87.8293,2.071,7.74,1111122 
DISL,ioos:station:DISL:BSCA:1,2017-01-06T06:00:00Z,30.3288,-87.8293,2.052,7.43,1111122 
DISL,ioos:station:DISL:BSCA:1,2017-01-06T06:30:00Z,30.3288,-87.8293,2.05,7.35,1111122 
DISL,ioos:station:DISL:BSCA:1,2017-01-06T07:00:00Z,30.3288,-87.8293,2.039,5.27,1111122 
DISL,ioos:station:DISL:BSCA:1,2017-01-06T07:30:00Z,30.3288,-87.8293,1.998,4.87,1111122 
DISL,ioos:station:DISL:BSCA:1,2017-01-06T08:00:00Z,30.3288,-87.8293,2.014,6.41,1111122 
DISL,ioos:station:DISL:BSCA:1,2017-01-06T08:30:00Z,30.3288,-87.8293,1.965,6.58,1111122 
DISL,ioos:station:DISL:BSCA:1,2017-01-06T09:00:00Z,30.3288,-87.8293,1.93,6.97,1111122 
DISL,ioos:station:DISL:BSCA:1,2017-01-06T09:30:00Z,30.3288,-87.8293,1.909,6.88,1111122 
DISL,ioos:station:DISL:BSCA:1,2017-01-06T10:00:00Z,30.3288,-87.8293,1.891,6.74,1111122 
DISL,ioos:station:DISL:BSCA:1,2017-01-06T10:30:00Z,30.3288,-87.8293,1.891,7.06,1111122 
DISL,ioos:station:DISL:BSCA:1,2017-01-06T11:00:00Z,30.3288,-87.8293,1.897,6.84,1111122 
DISL,ioos:station:DISL:BSCA:1,2017-01-06T11:30:00Z,30.3288,-87.8293,1.876,6.71,1111122 
DISL,ioos:station:DISL:BSCA:1,2017-01-06T12:00:00Z,30.3288,-87.8293,1.867,6.67,1111122 
DISL,ioos:station:DISL:BSCA:1,2017-01-06T12:30:00Z,30.3288,-87.8293,1.852,7.03,1111122 
DISL,ioos:station:DISL:BSCA:1,2017-01-06T13:00:00Z,30.3288,-87.8293,1.872,6.94,1111122 
DISL,ioos:station:DISL:BSCA:1,2017-01-06T13:30:00Z,30.3288,-87.8293,1.876,6.96,1111122 
DISL,ioos:station:DISL:BSCA:1,2017-01-06T14:00:00Z,30.3288,-87.8293,1.883,7.11,1111122 
DISL,ioos:station:DISL:BSCA:1,2017-01-06T14:30:00Z,30.3288,-87.8293,1.871,7.63,1111122 
DISL,ioos:station:DISL:BSCA:1,2017-01-06T15:00:00Z,30.3288,-87.8293,1.856,7.83,1111122 
DISL,ioos:station:DISL:BSCA:1,2017-01-06T15:30:00Z,30.3288,-87.8293,1.837,7.92,1111122 
DISL,ioos:station:DISL:BSCA:1,2017-01-06T16:00:00Z,30.3288,-87.8293,1.817,7.8,1111122 
DISL,ioos:station:DISL:BSCA:1,2017-01-06T16:30:00Z,30.3288,-87.8293,1.798,7.8,1111122 
DISL,ioos:station:DISL:BSCA:1,2017-01-06T17:00:00Z,30.3288,-87.8293,1.816,7.83,1111122 
DISL,ioos:station:DISL:BSCA:1,2017-01-06T17:30:00Z,30.3288,-87.8293,1.85,7.96,1111122 
DISL,ioos:station:DISL:BSCA:1,2017-01-06T18:00:00Z,30.3288,-87.8293,1.931,7.88,1111122 
DISL,ioos:station:DISL:BSCA:1,2017-01-06T18:30:00Z,30.3288,-87.8293,1.927,7.98,1111122 
DISL,ioos:station:DISL:BSCA:1,2017-01-06T19:00:00Z,30.3288,-87.8293,1.944,8.09,1111122 
DISL,ioos:station:DISL:BSCA:1,2017-01-06T19:30:00Z,30.3288,-87.8293,1.884,8.13,1111122 
DISL,ioos:station:DISL:BSCA:1,2017-01-06T20:00:00Z,30.3288,-87.8293,1.903,8.23,1111122 
DISL,ioos:station:DISL:BSCA:1,2017-01-06T20:30:00Z,30.3288,-87.8293,1.907,8.32,1111122 
DISL,ioos:station:DISL:BSCA:1,2017-01-06T21:00:00Z,30.3288,-87.8293,1.875,8.37,1111122 
DISL,ioos:station:DISL:BSCA:1,2017-01-06T21:30:00Z,30.3288,-87.8293,1.87,8.43,1111122 
DISL,ioos:station:DISL:BSCA:1,2017-01-06T22:00:00Z,30.3288,-87.8293,1.855,8.44,1111122 